Home > Weather > Medford > Past weeks

Flag for USA Past Weather in Medford, Oregon, USA — Yesterday and Last 2 Weeks

Now
94 °F

Sunny.


Feels Like: 90 °F
Forecast: 63 / 89 °F
Wind: 14 mph from Northwest

Location: Rogue Valley International Airport

Current Time: Aug 28, 2016 at 7:08:49 PM

Latest Report: Aug 28, 2016 at 5:53 PM


Visibility: 10 mi

Pressure: 29.90 "Hg

Humidity: 16%

Dew Point: 41 °F

Location of MedfordLocation

Past Weather in Medford — Graph

°F

Medford Temperature Yesterday

Maximum temperature yesterday: 95 °F (at 3:53 PM)
Minimum temperature yesterday: 61 °F (at 6:53 AM)
Average temperature yesterday: 77 °F

High & Low Weather Summary for the Past Weeks

 TemperatureHumidityPressure
High108 °F (Aug 19, 3:53 PM)69% (Aug 25, 5:53 AM)30.13 "Hg (Aug 25, 5:53 AM)
Low51 °F (Aug 23, 6:53 AM)7% (Aug 21, 4:53 PM)29.72 "Hg (Aug 18, 5:53 PM)
Average79 °F32%29.91 "Hg
* Reported Aug 13 5:53 PM — Aug 28 5:53 PM, Medford, Weather by CustomWeather, © 2016

Note: Actual official high and low records may vary slightly from our data, if they occured in-between our weather recording intervals... More about our weather records

Advertising

Medford Weather History for the Previous 24 Hours

Scroll right to see more
 ConditionsComfort  
Time TempWeatherWind HumidityBarometerVisibility
5:53 PM
Sun, Aug 28
94 °FSunny.14 mph16%29.90 "Hg10 mi
4:53 PM95 °FSunny.9 mph17%29.90 "Hg10 mi
3:53 PM94 °FSunny.9 mph17%29.91 "Hg10 mi
2:53 PM95 °FSunny.9 mph16%29.93 "Hg10 mi
1:53 PM91 °FSunny.6 mph19%29.96 "Hg10 mi
12:53 PM86 °FSunny.3 mph25%29.97 "Hg10 mi
11:53 AM81 °FSunny.5 mph29%29.99 "Hg10 mi
10:53 AM76 °FSunny.No wind32%30.01 "Hg10 mi
9:53 AM71 °FSunny.3 mph42%30.02 "Hg10 mi
8:53 AM66 °FSunny.No wind50%30.03 "Hg10 mi
7:53 AM62 °FSunny.No wind58%30.02 "Hg10 mi
6:53 AM60 °FClear.No wind60%30.01 "Hg10 mi
5:53 AM61 °FClear.No wind60%29.99 "Hg10 mi
4:53 AM62 °FClear.No wind56%29.97 "Hg10 mi
3:53 AM63 °FClear.No wind52%29.97 "Hg10 mi
2:53 AM66 °FClear.No wind50%29.96 "Hg10 mi
1:53 AM68 °FClear.No wind47%29.96 "Hg10 mi
12:53 AM71 °FClear.6 mph42%29.95 "Hg10 mi
11:53 PM
Sat, Aug 27
74 °FClear.No wind37%29.93 "Hg10 mi
10:53 PM76 °FClear.3 mph36%29.92 "Hg10 mi
9:53 PM79 °FClear.No wind29%29.91 "Hg10 mi
8:53 PM81 °FClear.7 mph27%29.89 "Hg10 mi
7:53 PM86 °FSunny.9 mph21%29.85 "Hg10 mi
Weather by CustomWeather, © 2016

See weather overviewHow to use our weather pages